This is the latest recevied weather packets stored in our database for station/object KC3AWA. If no packets are shown the sender has not sent any weather packets the latest 10 day(s).
| Time | Temp. | Humidity | Pressure | Rain* | Wind** | Luminosity | Snow |
|---|---|---|---|---|---|---|---|
| 1788137900 | 66° F | 96% | 767.2 mmHg | 0 in | - | 0 W/m² | - |
| 1788137596 | 66° F | 95% | 767.2 mmHg | 0 in | - | 0 W/m² | - |
| 1788137296 | 66° F | 95% | 767.1 mmHg | 0 in | - | 0 W/m² | - |
| 1788136992 | 66° F | 95% | 766.9 mmHg | 0 in | - | 0 W/m² | - |
| 1788136687 | 66° F | 95% | 766.9 mmHg | 0 in | - | 0 W/m² | - |
| 1788136384 | 66° F | 94% | 766.8 mmHg | 0 in | - | 0 W/m² | - |
| 1788136083 | 66° F | 94% | 766.6 mmHg | 0 in | - | 0 W/m² | - |
| 1788135776 | 66° F | 94% | 766.6 mmHg | 0 in | - | 0 W/m² | - |
| 1788135472 | 66° F | 94% | 766.6 mmHg | 0 in | - | 0 W/m² | - |
| 1788135168 | 67° F | 93% | 766.3 mmHg | 0 in | - | 0 W/m² | - |
| 1788134865 | 67° F | 92% | 766.4 mmHg | 0 in | - | 0 W/m² | - |
| 1788134564 | 67° F | 92% | 766.5 mmHg | 0 in | - | 0 W/m² | - |
| 1788134263 | 67° F | 92% | 766.2 mmHg | 0 in | - | 1 W/m² | - |
| 1788133958 | 67° F | 92% | 766.1 mmHg | 0 in | - | 1 W/m² | - |
| 1788133653 | 68° F | 92% | 766.3 mmHg | 0 in | - | 1 W/m² | - |
| 1788133349 | 68° F | 92% | 766 mmHg | 0 in | - | 3 W/m² | - |
| 1788133045 | 68° F | 91% | 766 mmHg | 0 in | - | 6 W/m² | - |
| 1788132740 | 68° F | 91% | 766 mmHg | 0 in | - | 7 W/m² | - |
| 1788132435 | 68° F | 90% | 766 mmHg | 0 in | - | 9 W/m² | - |
| 1788132131 | 69° F | 89% | 766 mmHg | 0 in | - | 10 W/m² | - |
| 1788131828 | 69° F | 88% | 765.9 mmHg | 0 in | - | 12 W/m² | - |
| 1788131528 | 69° F | 87% | 765.9 mmHg | 0 in | - | 19 W/m² | - |
| 1788131228 | 69° F | 87% | 765.7 mmHg | 0 in | - | 35 W/m² | - |
| 1788130923 | 70° F | 85% | 765.7 mmHg | 0 in | - | 42 W/m² | - |
| 1788130618 | 71° F | 84% | 765.7 mmHg | 0 in | - | 40 W/m² | - |
* Rain latest hour (hover to see other rain measurements)
** Current wind speed in m/s (hover to see current wind gust speed)